sat.trackr.live / text

‹ back to catalog

STARLINK-2741

NORAD 48684 · 2021-044AY

PAYLOAD ACTIVE UNKNOWN

§ Identity

Operator
Country
US
Launch date
2021-05-26
Launch site
AFETR
Launch vehicle
Mass (kg)
RCS (m²)

Purposes: comms

External: N2YO · Heavens-Above · Gunter

§ Orbital elements

Epoch: 2026-05-25T03:34:07.831200Z

Period
94.01 min
Inclination
53.1597°
Eccentricity
0.0001206
Mean motion
15.31701420 rev/d
Perigee alt
469.9 km
Apogee alt
471.6 km
Semi-major
6,848.9 km
B*
2.7467e-5
RAAN
82.3006°
Arg perigee
86.6669°
Mean anomaly
273.4471°
Rev number
27,604

§ Raw data

STARLINK-27411 48684U 21044AY  26145.14870175  .00000487  00000+0  27467-4 0  99902 48684  53.1597  82.3006 0001206  86.6669 273.4471 15.31701420276042

JSON: /api/v1/satellites/48684 · /tle

For live sub-satellite position, see the globe view (requires WebGL).

§ Visibility from observer

Set your observer location to see the next 7 days of passes ≥ 10°. The values pass through the URL so the page stays shareable.

No JS? Fill the form by hand. The geolocation button needs JavaScript.